Wind_Speed
18 15 15 15 16 15 13 12 12 13 13 12 11 11 11 13 13 13 13 13 14 14 15 16 18 16 14 13 12 10 7 7 6 8 9 10 10 7 5 5 5 4 7
16 16 18 18 16 14 14 11 12 13 13 12 12 13 13 16 16 15 13 13 13 13 14 16 17 18 18 15 12 8 9 8 9 10 10 11 12 13 10 7 6 5 5
17 20 19 17 15 14 12 12 13 14 14 15 15 15 16 15 15 14 13 12 11 10 13 15 15 16 15 15 14 13 11 11 11 11 10 11 12 12 10 8 8 8 10
19 20 17 16 14 13 14 15 15 16 17 15 14 14 13 13 13 12 13 13 13 13 13 13 13 14 15 15 15 16 15 11 10 11 10 10 10 10 8 7 9 9 6
18 18 15 14 14 16 17 19 18 17 14 13 13 12 11 10 11 12 14 14 14 13 12 12 13 14 14 14 15 14 13 12 10 10 10 10 10 9 8 7 7 6 5
17 17 16 15 18 20 21 20 17 14 14 14 12 10 10 12 13 14 15 14 13 13 13 13 13 12 13 13 13 12 12 12 11 10 9 7 7 6 5 4 3 3 2
17 18 20 21 22 22 20 17 15 14 12 13 13 13 13 15 15 15 14 13 13 13 13 13 12 12 13 13 12 11 11 10 8 7 7 6 5 4 2 2 1 0 1
19 23 24 23 23 21 17 15 14 12 13 14 14 15 17 16 14 14 14 14 14 13 12 12 12 11 11 12 11 12 11 10 9 8 8 7 6 4 3 3 4 4 3
21 23 24 23 21 18 16 15 14 13 15 14 16 16 16 16 15 14 13 13 13 13 12 10 9 9 8 9 9 9 7 7 6 7 8 7 5 5 6 8 7 7 6
22 23 23 21 18 17 16 15 13 13 14 15 14 15 12 14 14 13 12 11 11 10 8 8 7 9 10 10 7 6 7 9 10 9 8 7 6 6 7 7 7 10 9
23 23 20 17 17 18 15 14 15 13 15 13 12 11 13 13 12 14 12 9 9 10 9 11 11 10 9 9 10 9 9 10 11 10 8 9 9 9 9 6 8 7 8
22 21 17 15 16 17 14 15 15 16 16 10 14 14 15 13 10 14 11 10 12 12 10 11 10 11 11 10 10 9 12 14 12 12 14 13 12 12 10 10 10 11 6
20 18 15 15 14 15 16 15 15 15 11 10 15 12 13 12 13 10 11 11 13 13 12 9 12 13 12 12 13 13 13 12 12 17 18 17 15 16 17 15 13 13 13
19 17 14 14 16 14 15 15 14 14 11 11 13 12 9 8 13 11 9 14 13 12 10 11 13 12 12 13 13 13 15 17 19 21 21 21 18 14 19 18 17 17 16
18 17 16 15 15 13 14 15 15 12 12 10 11 12 12 14 5 7 10 12 12 11 9 12 12 12 12 14 16 19 22 21 22 25 23 22 19 15 17 14 15 15 15
17 16 16 14 13 11 13 14 15 11 12 11 13 11 13 7 8 6 8 10 10 9 9 11 10 11 12 14 16 19 21 24 24 24 24 20 16 13 16 15 16 14 15
16 14 15 12 11 9 10 13 13 11 11 12 11 9 8 8 6 6 6 6 6 7 9 9 9 11 13 14 17 19 21 28 32 27 27 20 15 15 15 15 17 20 19
12 11 12 10 8 7 6 10 11 9 11 13 9 7 6 5 3 4 6 7 7 8 10 12 13 14 15 18 20 21 24 29 33 29 22 21 17 17 19 16 18 21 23
10 10 9 7 5 5 8 9 8 10 11 12 9 8 7 5 5 7 8 9 9 10 12 12 12 12 13 15 19 22 26 31 34 27 11 16 17 19 22 20 18 22 23
7 6 4 3 3 4 4 4 4 7 9 9 9 8 7 6 7 8 8 8 8 9 10 11 13 12 13 14 18 22 26 27 29 22 15 14 17 20 21 20 19 19 27
8 7 5 4 3 1 3 4 5 5 6 7 6 5 5 5 5 7 9 9 10 11 11 11 12 14 14 16 19 22 25 25 28 31 25 19 15 17 15 18 21 22 27
7 6 7 5 3 4 4 4 2 4 5 6 5 3 4 5 5 6 7 10 10 11 13 14 17 19 19 19 21 22 24 26 20 27 24 24 21 17 16 19 22 21 22
7 7 7 7 5 5 4 4 2 3 4 5 6 5 4 5 8 7 8 10 12 13 14 16 18 20 22 23 24 25 25 27 27 28 29 26 19 15 17 19 21 18 19
6 6 6 6 4 4 3 2 1 3 4 5 4 5 4 5 7 9 11 11 13 15 17 19 20 20 21 22 23 26 27 26 25 28 32 21 31 31 22 23 24 20 24
4 5 4 4 3 3 4 3 2 2 4 6 6 6 7 7 9 11 13 13 14 16 17 19 21 24 24 25 26 26 29 30 33 25 25 31 29 37 20 33 29 28 27
7 6 5 3 3 4 3 2 1 2 3 4 6 7 8 8 9 12 14 16 17 18 19 21 24 27 29 29 30 31 30 30 26 24 21 29 29 47 48 45 38 29 34
Wind_Direction
130 124 120 113 109 104 100 102 93 89 84 80 74 75 74 70 73 73 68 59 56 58 61 76 91 92 95 89 83 74 87 98 89 72 65 78 79 75 130 119 128 158 175
127 114 120 111 102 102 100 95 88 82 81 75 72 70 66 64 64 63 61 61 65 72 78 93 94 88 84 82 80 83 92 118 111 99 86 89 88 86 90 107 94 109 150
126 121 110 106 108 99 98 86 79 81 74 70 69 66 61 61 59 56 57 59 64 77 89 93 95 98 98 98 93 94 95 94 98 104 102 98 98 94 90 84 76 51 58
123 114 112 108 107 103 89 88 83 77 73 70 64 62 60 58 57 53 54 55 64 74 77 82 84 91 91 88 82 80 94 113 112 96 88 77 72 76 79 72 66 53 48
124 114 115 114 110 99 98 92 87 81 77 71 65 59 54 54 57 61 62 58 64 71 78 83 85 89 91 92 88 90 100 105 96 90 83 74 71 73 71 64 70 71 61
121 125 119 113 106 102 96 91 89 88 80 74 70 69 65 62 63 70 73 71 73 74 76 72 74 81 79 82 91 99 96 93 83 81 77 73 66 56 61 56 46 75 78
128 120 113 108 105 98 92 93 91 83 79 73 67 65 66 72 80 83 80 83 85 80 80 76 77 77 81 88 91 90 87 84 83 67 69 54 51 42 32 346 355 60 49
118 112 108 106 97 93 97 95 86 80 72 68 67 72 75 75 74 79 84 81 80 84 86 89 86 79 62 55 59 60 49 32 23 24 21 19 14 351 332 333 333 318 325
112 109 107 99 97 100 94 87 79 72 68 69 66 68 75 75 69 69 74 74 81 82 81 73 62 48 47 37 41 43 30 22 11 14 2 2 339 328 333 341 343 330 318
115 108 101 100 103 97 90 85 80 71 75 74 74 74 83 72 71 69 68 72 73 79 71 65 52 34 32 29 28 20 14 12 9 354 351 339 323 322 328 316 327 310 310
115 106 106 110 106 97 92 89 80 77 74 76 69 71 70 67 69 68 70 74 63 61 51 50 44 36 37 29 19 10 357 354 3 349 332 325 328 303 295 292 286 306 284
118 117 118 114 101 99 95 88 85 83 80 79 66 71 63 66 78 63 70 62 51 51 58 52 45 38 32 26 19 4 353 356 352 345 346 330 320 317 300 290 294 279 262
125 126 130 118 108 98 86 82 79 81 88 69 77 85 73 69 74 68 70 69 58 53 55 59 56 45 34 26 19 10 360 359 347 341 332 339 301 308 307 298 296 299 296
134 134 132 114 100 97 95 89 79 78 75 72 71 85 71 79 66 57 73 74 62 51 47 49 49 44 28 18 9 6 1 354 345 335 325 321 314 303 304 291 294 301 292
141 137 126 117 103 90 84 86 85 81 73 80 76 68 56 66 61 37 63 69 64 51 48 51 44 39 21 9 3 2 355 350 343 338 331 329 331 298 298 285 291 297 288
146 136 124 121 108 87 81 83 81 74 74 71 69 67 69 84 54 59 57 66 57 49 46 43 33 27 21 7 358 355 349 345 343 335 327 330 333 312 314 323 317 301 291
141 138 128 126 116 91 72 77 78 71 66 67 72 78 83 73 65 67 63 61 57 43 33 34 24 16 13 357 359 353 348 343 339 332 333 337 323 311 310 327 323 313 304
146 152 140 142 127 98 76 75 73 72 63 65 57 61 71 70 48 16 33 22 26 23 18 16 8 6 4 355 352 351 350 334 329 333 318 327 324 313 306 311 313 309 301
164 160 149 150 116 66 52 53 54 63 51 57 61 56 45 45 19 358 359 358 335 2 1 3 359 358 357 349 347 351 348 338 351 342 309 319 323 317 301 300 308 311 306
162 160 152 152 83 56 53 44 45 63 57 50 39 40 41 31 22 6 1 5 351 350 351 347 343 345 347 348 348 353 347 9 3 354 321 324 323 330 299 300 314 321 315
174 173 184 197 226 257 320 350 29 15 49 49 58 35 23 19 16 353 344 344 337 345 336 334 326 332 337 349 347 347 348 343 354 353 350 317 313 321 303 300 312 320 319
197 201 197 207 272 290 313 308 22 358 17 28 33 41 11 2 5 350 334 322 322 327 330 331 327 335 337 347 342 345 343 339 351 357 344 327 315 330 313 304 308 317 323
221 228 239 236 240 260 269 281 8 355 12 21 5 15 9 351 347 338 325 326 328 328 329 331 336 339 342 341 339 337 336 336 343 333 326 317 320 350 322 324 315 310 324
198 223 226 235 229 238 231 227 248 303 350 18 10 358 356 336 325 320 322 325 322 330 338 338 336 333 335 337 331 329 330 328 322 325 340 325 331 350 329 343 327 318 339
197 203 210 219 226 211 230 253 281 339 6 11 3 356 354 340 330 324 324 325 327 333 335 334 334 330 332 331 330 329 322 316 317 332 338 325 329 357 333 349 337 341 333
229 229 217 231 253 265 263 263 296 343 360 356 348 340 332 328 323 315 318 324 330 335 338 332 330 330 328 328 329 321 313 314 315 328 335 325 321 350 351 353 348 344 322
Height
5883 5885 5887 5887 5889 5890 5892 5893 5892 5892 5893 5894 5893 5893 5893 5892 5891 5890 5890 5891 5891 5890 5889 5888 5888 5888 5889 5890 5890 5890 5891 5892 5893 5894 5892 5891 5890 5889 5890 5889 5890 5889 5890
5885 5887 5889 5890 5892 5892 5893 5894 5895 5895 5896 5896 5896 5897 5897 5895 5894 5893 5893 5893 5892 5891 5891 5891 5891 5892 5893 5893 5892 5893 5892 5893 5893 5892 5892 5892 5891 5892 5891 5891 5890 5889 5889
5890 5890 5892 5893 5894 5894 5895 5897 5897 5898 5898 5899 5899 5899 5899 5898 5897 5896 5896 5896 5895 5893 5893 5893 5894 5894 5895 5895 5894 5894 5896 5895 5894 5893 5892 5892 5892 5892 5893 5893 5892 5892 5891
5893 5892 5894 5895 5897 5898 5898 5899 5900 5901 5902 5902 5902 5901 5901 5900 5899 5899 5899 5899 5898 5898 5898 5897 5898 5899 5899 5899 5899 5898 5897 5895 5894 5894 5895 5897 5897 5896 5896 5895 5894 5893 5893
5896 5895 5897 5900 5901 5901 5902 5903 5904 5904 5904 5903 5902 5902 5902 5902 5902 5902 5901 5901 5901 5901 5901 5901 5902 5902 5902 5901 5901 5900 5897 5896 5897 5898 5899 5898 5898 5897 5897 5896 5894 5894 5893
5897 5899 5901 5903 5903 5904 5906 5907 5907 5907 5906 5905 5905 5905 5905 5905 5905 5904 5904 5904 5903 5903 5904 5904 5905 5904 5904 5903 5901 5898 5898 5899 5900 5900 5900 5899 5899 5898 5898 5897 5895 5894 5893
5901 5902 5903 5906 5907 5908 5909 5910 5910 5909 5909 5908 5908 5908 5907 5907 5906 5906 5906 5906 5906 5907 5907 5907 5906 5906 5904 5903 5902 5902 5904 5904 5902 5902 5902 5901 5900 5898 5896 5895 5894 5893 5893
5904 5905 5907 5910 5910 5910 5912 5912 5912 5912 5912 5911 5910 5909 5909 5910 5909 5909 5908 5909 5910 5910 5909 5908 5907 5906 5906 5906 5905 5906 5906 5904 5903 5902 5902 5901 5900 5898 5897 5898 5897 5896 5896
5906 5909 5911 5912 5913 5913 5915 5915 5915 5914 5914 5913 5913 5912 5911 5912 5912 5912 5911 5911 5910 5911 5911 5910 5910 5909 5908 5907 5907 5907 5904 5902 5901 5900 5900 5899 5897 5897 5897 5897 5896 5895 5894
5910 5913 5915 5916 5915 5916 5917 5917 5917 5917 5916 5915 5915 5914 5913 5914 5914 5913 5913 5913 5913 5913 5913 5913 5912 5911 5911 5909 5905 5902 5900 5901 5900 5899 5897 5896 5895 5894 5894 5895 5894 5892 5891
5914 5917 5918 5918 5918 5918 5918 5919 5919 5919 5919 5918 5917 5917 5917 5917 5915 5915 5915 5915 5915 5916 5915 5914 5913 5912 5909 5909 5908 5904 5902 5900 5900 5898 5895 5893 5893 5892 5891 5891 5891 5890 5889
5918 5919 5920 5920 5920 5921 5920 5920 5920 5920 5920 5918 5920 5920 5919 5918 5917 5918 5917 5917 5918 5917 5917 5916 5914 5913 5913 5910 5908 5906 5904 5904 5901 5898 5898 5896 5894 5893 5892 5891 5889 5889 5887
5920 5922 5922 5922 5923 5923 5922 5922 5922 5922 5920 5920 5921 5921 5920 5919 5919 5919 5919 5919 5920 5920 5919 5917 5916 5914 5912 5910 5908 5906 5904 5902 5900 5898 5896 5893 5891 5890 5887 5886 5885 5885 5883
5922 5923 5924 5925 5925 5925 5924 5923 5924 5923 5921 5921 5921 5922 5921 5920 5921 5921 5921 5920 5921 5921 5920 5918 5916 5915 5912 5911 5910 5907 5904 5902 5899 5896 5893 5889 5886 5884 5884 5881 5880 5878 5877
5923 5925 5925 5926 5927 5927 5926 5926 5925 5925 5924 5923 5923 5924 5923 5922 5923 5923 5922 5922 5921 5921 5920 5918 5917 5914 5912 5911 5909 5906 5902 5899 5897 5892 5888 5884 5881 5881 5878 5875 5873 5874 5873
5924 5926 5926 5927 5928 5929 5928 5927 5926 5926 5926 5924 5924 5924 5924 5924 5924 5924 5923 5921 5920 5920 5919 5918 5916 5915 5913 5911 5907 5904 5901 5898 5893 5889 5885 5882 5880 5876 5875 5872 5871 5868 5866
5925 5927 5928 5929 5929 5929 5929 5928 5928 5928 5926 5925 5924 5925 5924 5924 5924 5924 5923 5921 5920 5920 5920 5919 5917 5916 5913 5910 5908 5903 5899 5895 5891 5886 5881 5879 5876 5873 5870 5868 5867 5865 5861
5927 5928 5928 5928 5929 5929 5930 5930 5930 5929 5927 5925 5925 5925 5925 5925 5925 5926 5924 5922 5922 5921 5921 5919 5918 5915 5912 5908 5906 5903 5899 5893 5886 5882 5879 5877 5872 5869 5867 5864 5861 5860 5857
5927 5928 5929 5929 5929 5930 5931 5930 5930 5929 5927 5926 5927 5926 5926 5925 5925 5926 5925 5924 5923 5921 5919 5918 5917 5915 5912 5907 5905 5901 5895 5889 5882 5876 5874 5870 5868 5865 5862 5859 5856 5854 5851
5927 5928 5930 5930 5930 5931 5931 5930 5930 5930 5929 5928 5927 5927 5927 5927 5926 5926 5925 5923 5922 5920 5919 5917 5916 5914 5911 5908 5903 5898 5893 5886 5882 5876 5872 5868 5864 5861 5857 5855 5851 5846 5844
5926 5928 5930 5930 5930 5931 5931 5931 5930 5930 5930 5931 5929 5928 5927 5926 5925 5925 5924 5923 5921 5919 5917 5915 5914 5913 5909 5905 5900 5896 5890 5884 5880 5876 5870 5867 5862 5855 5852 5848 5844 5841 5837
5926 5928 5929 5929 5930 5930 5930 5930 5931 5931 5931 5930 5929 5928 5927 5925 5924 5925 5924 5922 5919 5917 5915 5914 5910 5907 5903 5899 5896 5893 5889 5884 5877 5871 5867 5862 5857 5849 5846 5842 5837 5835 5831
5924 5926 5928 5928 5928 5929 5929 5929 5929 5929 5930 5928 5928 5927 5926 5925 5924 5923 5922 5921 5918 5915 5912 5909 5905 5901 5898 5895 5891 5886 5883 5880 5875 5869 5863 5857 5853 5846 5842 5836 5834 5828 5824
5922 5923 5924 5926 5926 5927 5927 5928 5928 5928 5928 5928 5927 5926 5925 5924 5923 5922 5919 5917 5914 5911 5908 5905 5902 5898 5895 5892 5887 5883 5880 5875 5871 5866 5859 5856 5850 5842 5837 5831 5826 5821 5816
5921 5923 5922 5923 5924 5925 5927 5927 5927 5927 5926 5925 5925 5924 5923 5922 5921 5919 5917 5915 5911 5907 5905 5902 5899 5895 5892 5889 5886 5882 5877 5870 5864 5860 5854 5849 5843 5836 5833 5826 5822 5816 5810
5918 5920 5921 5921 5922 5923 5925 5925 5926 5925 5925 5925 5924 5923 5922 5919 5917 5915 5913 5911 5908 5906 5904 5900 5896 5893 5889 5886 5881 5874 5868 5862 5860 5857 5852 5846 5839 5834 5827 5820 5818 5812 5802